,,PA_Meas_PMT16A,,PR_Meas_QMR101_102,,RH_Meas_QMH101,,SR_Meas_QMS101,,TA_Meas_QMH101,,GenWind,,GenWind,
time,status,PA,status,PR,status,RH,status,SR,status,TA,status,DirAvg,status,SpdAvg,
2010-12-25, 00:00:04,VALID,916.113,VALID,0,VALID,95.8721,VALID,0,VALID,19.5288,VALID,7,VALID,0.838281,
2010-12-25, 00:01:04,VALID,916.078,VALID,0,VALID,95.9483,VALID,0,VALID,19.4883,VALID,7,VALID,0.589063,
2010-12-25, 00:02:04,VALID,916.02,VALID,0,VALID,95.9407,VALID,0,VALID,19.4898,VALID,7,VALID,1.15625,
2010-12-25, 00:03:04,VALID,915.969,VALID,0,VALID,95.9636,VALID,0,VALID,19.4298,VALID,7,VALID,1.26914,
2010-12-25, 00:04:04,VALID,915.964,VALID,0,VALID,96.0322,VALID,0,VALID,19.3908,VALID,7,VALID,0.912891,
2010-12-25, 00:05:04,VALID,915.963,VALID,0,VALID,96.0169,VALID,0,VALID,19.3713,VALID,7,VALID,0.866406,
2010-12-25, 00:06:04,VALID,916.01,VALID,0,VALID,96.0093,VALID,0,VALID,19.3338,VALID,7,VALID,0.464063,
2010-12-25, 00:07:04,VALID,916.063,VALID,0,VALID,95.9788,VALID,0,VALID,19.2738,VALID,7,VALID,1.17656,
2010-12-25, 00:08:04,VALID,916.13,VALID,0,VALID,96.0855,VALID,0,VALID,19.2348,VALID,7,VALID,1.01602,
2010-12-25, 00:09:04,VALID,916.195,VALID,0,VALID,96.1084,VALID,0,VALID,19.2363,VALID,7,VALID,0.972656,
2010-12-25, 00:10:04,VALID,916.173,VALID,0,VALID,96.1465,VALID,0,VALID,19.2168,VALID,7,VALID,0.965234,
2010-12-25, 00:11:04,VALID,916.168,VALID,0,VALID,96.1465,VALID,0,VALID,19.1568,VALID,7,VALID,1.5375,
2010-12-25, 00:12:04,VALID,916.207,VALID,0,VALID,96.2304,VALID,0,VALID,19.1973,VALID,7,VALID,1.06172,
2010-12-25, 00:13:04,VALID,916.233,VALID,0,VALID,96.1999,VALID,0,VALID,19.1778,VALID,7,VALID,1.34727,
2010-12-25, 00:14:04,VALID,916.234,VALID,0,VALID,96.1236,VALID,0,VALID,19.1583,VALID,7,VALID,1.03711,
2010-12-25, 00:15:04,VALID,916.269,VALID,0,VALID,96.0703,VALID,0,VALID,19.1178,VALID,7,VALID,0.661328,
2010-12-25, 00:16:04,VALID,916.293,VALID,0,VALID,95.9941,VALID,0,VALID,19.0983,VALID,7,VALID,0.516016,
2010-12-25, 00:17:04,VALID,916.281,VALID,0,VALID,95.7958,VALID,0,VALID,19.0998,VALID,7,VALID,1.06406,
2010-12-25, 00:18:04,VALID,916.276,VALID,0,VALID,95.5367,VALID,0,VALID,19.0593,VALID,7,VALID,0.958203,
2010-12-25, 00:19:04,VALID,916.263,VALID,0,VALID,95.2775,VALID,0,VALID,19.0998,VALID,7,VALID,0.927344,
2010-12-25, 00:20:04,VALID,916.254,VALID,0,VALID,94.9039,VALID,0,VALID,19.1193,VALID,7,VALID,0.829297,
2010-12-25, 00:21:04,VALID,916.286,VALID,0,VALID,94.5761,VALID,0,VALID,19.1388,VALID,7,VALID,0.469922,
2010-12-25, 00:22:04,VALID,916.252,VALID,0,VALID,94.4084,VALID,0,VALID,19.1568,VALID,7,VALID,0.390234,
2010-12-25, 00:23:04,VALID,916.189,VALID,0,VALID,94.2178,VALID,0,VALID,19.1958,VALID,7,VALID,0.441406,
2010-12-25, 00:24:04,VALID,916.185,VALID,0,VALID,94.1187,VALID,0,VALID,19.2363,VALID,7,VALID,0.122266,
2010-12-25, 00:25:04,VALID,916.179,VALID,0,VALID,93.8519,VALID,0,VALID,19.2558,VALID,7,VALID,0,
2010-12-25, 00:26:04,VALID,916.177,VALID,0,VALID,93.7451,VALID,0,VALID,19.2753,VALID,7,VALID,0,
2010-12-25, 00:27:04,VALID,916.196,VALID,0,VALID,93.707,VALID,0,VALID,19.2948,VALID,7,VALID,0,
2010-12-25, 00:28:04,VALID,916.216,VALID,0,VALID,93.5241,VALID,0,VALID,19.2738,VALID,7,VALID,0.432031,
2010-12-25, 00:29:04,VALID,916.222,VALID,0,VALID,93.4326,VALID,0,VALID,19.2753,VALID,7,VALID,0.527344,
2010-12-25, 00:30:04,VALID,916.298,VALID,0,VALID,93.4936,VALID,0,VALID,19.2738,VALID,7,VALID,0.619141,
2010-12-25, 00:31:04,VALID,916.35,VALID,0,VALID,93.5851,VALID,0,VALID,19.1568,VALID,7,VALID,0.700391,
2010-12-25, 00:32:04,VALID,916.39,VALID,0,VALID,93.8061,VALID,0,VALID,19.1178,VALID,7,VALID,0.508203,
2010-12-25, 00:33:04,VALID,916.388,VALID,0,VALID,94.0348,VALID,0,VALID,19.0788,VALID,7,VALID,0.823438,
2010-12-25, 00:34:04,VALID,916.398,VALID,0,VALID,94.1873,VALID,0,VALID,19.0579,VALID,7,VALID,0.938281,
2010-12-25, 00:35:04,VALID,916.373,VALID,0,VALID,94.3321,VALID,0,VALID,19.0593,VALID,7,VALID,0.758984,
2010-12-25, 00:36:04,VALID,916.33,VALID,0,VALID,94.3398,VALID,0,VALID,19.0788,VALID,7,VALID,0.605078,
2010-12-25, 00:37:04,VALID,916.296,VALID,0,VALID,94.2559,VALID,0,VALID,19.0788,VALID,7,VALID,0.221094,
2010-12-25, 00:38:04,VALID,916.207,VALID,0,VALID,94.1568,VALID,0,VALID,19.0579,VALID,7,VALID,0,
2010-12-25, 00:39:04,VALID,916.144,VALID,0,VALID,94.0272,VALID,0,VALID,19.0774,VALID,7,VALID,0.177344,
2010-12-25, 00:40:04,VALID,916.071,VALID,0,VALID,93.8976,VALID,0,VALID,19.0788,VALID,7,VALID,0.832812,
2010-12-25, 00:41:04,VALID,916.027,VALID,0,VALID,93.8138,VALID,0,VALID,19.0384,VALID,7,VALID,0.835938,
2010-12-25, 00:42:04,VALID,915.985,VALID,0,VALID,93.8443,VALID,0,VALID,19.0398,VALID,7,VALID,0.975781,
2010-12-25, 00:43:04,VALID,915.976,VALID,0,VALID,93.8747,VALID,0,VALID,19.0008,VALID,7,VALID,0.888281,
2010-12-25, 00:44:04,VALID,915.915,VALID,0,VALID,93.8747,VALID,0,VALID,18.9814,VALID,7,VALID,0.566016,
2010-12-25, 00:45:04,VALID,915.905,VALID,0,VALID,93.9205,VALID,0,VALID,18.9214,VALID,7,VALID,0.420703,
2010-12-25, 00:46:04,VALID,915.874,VALID,0,VALID,93.9281,VALID,0,VALID,18.9828,VALID,7,VALID,0.45625,
2010-12-25, 00:47:04,VALID,915.864,VALID,0,VALID,93.9891,VALID,0,VALID,18.9214,VALID,7,VALID,0.7625,
2010-12-25, 00:48:04,VALID,915.811,VALID,0,VALID,94.4465,VALID,0,VALID,18.9619,VALID,7,VALID,0.865234,
2010-12-25, 00:49:04,VALID,915.822,VALID,0,VALID,94.7209,VALID,0,VALID,18.9842,VALID,7,VALID,0.174219,
2010-12-25, 00:50:04,VALID,915.842,VALID,0,VALID,94.8582,VALID,0,VALID,18.9438,VALID,7,VALID,0,
2010-12-25, 00:51:04,VALID,915.838,VALID,0,VALID,94.6142,VALID,0,VALID,18.9467,VALID,7,VALID,0,
2010-12-25, 00:52:04,VALID,915.895,VALID,0,VALID,94.2559,VALID,0,VALID,18.8463,VALID,7,VALID,0.489062,
2010-12-25, 00:53:04,VALID,915.91,VALID,0,VALID,94.3321,VALID,0,VALID,18.8073,VALID,7,VALID,0.523438,
2010-12-25, 00:54:04,VALID,915.845,VALID,0,VALID,94.4922,VALID,0,VALID,18.7878,VALID,7,VALID,0.570313,
2010-12-25, 00:55:04,VALID,915.835,VALID,0,VALID,94.4236,VALID,0,VALID,18.7293,VALID,7,VALID,0.509375,
2010-12-25, 00:56:04,VALID,915.782,VALID,0,VALID,94.66,VALID,0,VALID,18.6708,VALID,7,VALID,0.208984,
2010-12-25, 00:57:04,VALID,915.715,VALID,0,VALID,94.7591,VALID,0,VALID,18.6528,VALID,7,VALID,0,
2010-12-25, 00:58:04,VALID,915.663,VALID,0,VALID,94.9954,VALID,0,VALID,18.6124,VALID,7,VALID,0,
2010-12-25, 00:59:05,VALID,915.624,VALID,0,VALID,95.2775,VALID,0,VALID,18.6513,VALID,7,VALID,0.185156,
2010-12-25, 01:00:05,VALID,915.548,VALID,0,VALID,95.4604,VALID,0,VALID,18.6694,VALID,7,VALID,0,
2010-12-25, 01:01:05,VALID,915.52,VALID,0,VALID,95.5595,VALID,0,VALID,18.7084,VALID,7,VALID,0,
2010-12-25, 01:02:05,VALID,915.518,VALID,0,VALID,95.5443,VALID,0,VALID,18.7084,VALID,7,VALID,0,
2010-12-25, 01:03:05,VALID,915.522,VALID,0,VALID,95.4757,VALID,0,VALID,18.6875,VALID,7,VALID,0,
2010-12-25, 01:04:05,VALID,915.521,VALID,0,VALID,95.2241,VALID,0,VALID,18.6694,VALID,7,VALID,0,
2010-12-25, 01:05:05,VALID,915.527,VALID,0,VALID,95.0716,VALID,0,VALID,18.6708,VALID,7,VALID,0,
2010-12-25, 01:06:05,VALID,915.501,VALID,0,VALID,95.2012,VALID,0,VALID,18.6694,VALID,7,VALID,0,
2010-12-25, 01:07:05,VALID,915.527,VALID,0,VALID,95.4071,VALID,0,VALID,18.7084,VALID,7,VALID,0,
2010-12-25, 01:08:05,VALID,915.487,VALID,0,VALID,95.6205,VALID,0,VALID,18.7669,VALID,7,VALID,0,
2010-12-25, 01:09:05,VALID,915.492,VALID,0,VALID,95.4071,VALID,0,VALID,18.7279,VALID,7,VALID,0,
2010-12-25, 01:10:05,VALID,915.445,VALID,0,VALID,95.1936,VALID,0,VALID,18.6889,VALID,7,VALID,0,
2010-12-25, 01:11:05,VALID,915.405,VALID,0,VALID,95.0488,VALID,0,VALID,18.6889,VALID,7,VALID,0,
2010-12-25, 01:12:05,VALID,915.338,VALID,0,VALID,94.9801,VALID,0,VALID,18.6889,VALID,7,VALID,0,
2010-12-25, 01:13:05,VALID,915.318,VALID,0,VALID,94.8048,VALID,0,VALID,18.6694,VALID,7,VALID,0,
2010-12-25, 01:14:05,VALID,915.284,VALID,0,VALID,94.5761,VALID,0,VALID,18.6499,VALID,7,VALID,0,
2010-12-25, 01:15:05,VALID,915.25,VALID,0,VALID,94.1644,VALID,0,VALID,18.5914,VALID,7,VALID,0,
2010-12-25, 01:16:05,VALID,915.246,VALID,0,VALID,94.3626,VALID,0.107441,VALID,18.5525,VALID,7,VALID,0.222266,
2010-12-25, 01:17:05,VALID,915.244,VALID,0,VALID,94.8124,VALID,0,VALID,18.533,VALID,7,VALID,0.390234,
2010-12-25, 01:18:05,VALID,915.263,VALID,0,VALID,94.9496,VALID,0,VALID,18.4745,VALID,7,VALID,0.484375,
2010-12-25, 01:19:05,VALID,915.279,VALID,0,VALID,94.4617,VALID,0,VALID,18.338,VALID,7,VALID,0.796094,
2010-12-25, 01:20:05,VALID,915.258,VALID,0,VALID,95.2851,VALID,0.107441,VALID,18.377,VALID,7,VALID,0.683594,
2010-12-25, 01:21:05,VALID,915.286,VALID,0,VALID,95.529,VALID,0,VALID,18.3575,VALID,7,VALID,0.627734,
2010-12-25, 01:22:05,VALID,915.306,VALID,0,VALID,95.5367,VALID,0,VALID,18.299,VALID,7,VALID,0.545703,
2010-12-25, 01:23:05,VALID,915.301,VALID,0,VALID,95.4604,VALID,0,VALID,18.242,VALID,7,VALID,0.957812,
2010-12-25, 01:24:05,VALID,915.311,VALID,0,VALID,95.6891,VALID,0,VALID,18.2601,VALID,7,VALID,0.767187,
2010-12-25, 01:25:05,VALID,915.359,VALID,0,VALID,95.8873,VALID,0,VALID,18.2809,VALID,7,VALID,0.728906,
2010-12-25, 01:26:05,VALID,915.357,VALID,0,VALID,95.9864,VALID,0,VALID,18.2809,VALID,7,VALID,0.749609,
2010-12-25, 01:27:05,VALID,915.349,VALID,0,VALID,96.1541,VALID,0,VALID,18.299,VALID,7,VALID,0.510547,
2010-12-25, 01:28:05,VALID,915.35,VALID,0,VALID,96.2304,VALID,0,VALID,18.3394,VALID,7,VALID,0.697266,
2010-12-25, 01:29:05,VALID,915.34,VALID,0,VALID,96.2685,VALID,0,VALID,18.3394,VALID,7,VALID,0.888281,
2010-12-25, 01:30:05,VALID,915.331,VALID,0,VALID,96.299,VALID,0,VALID,18.3185,VALID,7,VALID,0.710547,
2010-12-25, 01:31:05,VALID,915.296,VALID,0,VALID,96.3142,VALID,0,VALID,18.3589,VALID,7,VALID,0.394531,
2010-12-25, 01:32:05,VALID,915.306,VALID,0,VALID,96.3142,VALID,0,VALID,18.3575,VALID,7,VALID,0,
2010-12-25, 01:33:05,VALID,915.294,VALID,0,VALID,96.299,VALID,0,VALID,18.377,VALID,7,VALID,0.0128906,
2010-12-25, 01:34:05,VALID,915.275,VALID,0,VALID,96.2685,VALID,0,VALID,18.4369,VALID,7,VALID,0.183594,
2010-12-25, 01:35:05,VALID,915.234,VALID,0,VALID,96.1465,VALID,0,VALID,18.4564,VALID,7,VALID,0.544141,
2010-12-25, 01:36:05,VALID,915.209,VALID,0,VALID,95.9712,VALID,0,VALID,18.455,VALID,7,VALID,0.253516,
2010-12-25, 01:37:05,VALID,915.195,VALID,0,VALID,95.8416,VALID,0,VALID,18.494,VALID,7,VALID,0.0746094,
2010-12-25, 01:38:05,VALID,915.174,VALID,0,VALID,95.6662,VALID,0,VALID,18.5525,VALID,7,VALID,0.0691406,
2010-12-25, 01:39:05,VALID,915.183,VALID,0,VALID,95.5062,VALID,0,VALID,18.6124,VALID,7,VALID,0.287891,
2010-12-25, 01:40:05,VALID,915.143,VALID,0,VALID,95.4375,VALID,0,VALID,18.6708,VALID,7,VALID,0,
2010-12-25, 01:41:05,VALID,915.141,VALID,0,VALID,95.2088,VALID,0,VALID,18.6903,VALID,7,VALID,0,
2010-12-25, 01:42:05,VALID,915.156,VALID,0,VALID,94.9496,VALID,0,VALID,18.6694,VALID,7,VALID,0.009375,
2010-12-25, 01:43:05,VALID,915.111,VALID,0,VALID,94.7438,VALID,0,VALID,18.7503,VALID,7,VALID,0.0898438,
2010-12-25, 01:44:05,VALID,915.118,VALID,0,VALID,94.4313,VALID,0,VALID,18.6889,VALID,7,VALID,0.0914062,
2010-12-25, 01:45:05,VALID,915.097,VALID,0,VALID,94.1568,VALID,0,VALID,18.7488,VALID,7,VALID,0,
2010-12-25, 01:46:05,VALID,915.068,VALID,0,VALID,93.768,VALID,0,VALID,18.7265,VALID,7,VALID,0.06875,
2010-12-25, 01:47:05,VALID,915.037,VALID,0,VALID,93.8519,VALID,0,VALID,18.707,VALID,7,VALID,0.200391,
2010-12-25, 01:48:05,VALID,915.008,VALID,0,VALID,93.7604,VALID,0,VALID,18.7488,VALID,7,VALID,0,
2010-12-25, 01:49:05,VALID,914.994,VALID,0,VALID,93.4021,VALID,0,VALID,18.6889,VALID,7,VALID,0,
2010-12-25, 01:50:05,VALID,914.966,VALID,0,VALID,93.2344,VALID,0,VALID,18.6304,VALID,7,VALID,0,
2010-12-25, 01:51:05,VALID,914.966,VALID,0,VALID,93.4326,VALID,0,VALID,18.5496,VALID,7,VALID,0,
2010-12-25, 01:52:05,VALID,914.942,VALID,0,VALID,93.6689,VALID,0,VALID,18.6152,VALID,7,VALID,0,
2010-12-25, 01:53:05,VALID,914.915,VALID,0,VALID,93.7985,VALID,0,VALID,18.5553,VALID,7,VALID,0.332422,
2010-12-25, 01:54:05,VALID,914.928,VALID,0,VALID,94.1034,VALID,0,VALID,18.4536,VALID,7,VALID,0.435937,
2010-12-25, 01:55:05,VALID,914.888,VALID,0,VALID,94.1568,VALID,0,VALID,18.4355,VALID,7,VALID,0.583203,
2010-12-25, 01:56:05,VALID,914.873,VALID,0,VALID,94.2102,VALID,0,VALID,18.3575,VALID,7,VALID,0.767969,
2010-12-25, 01:57:05,VALID,914.864,VALID,0,VALID,94.66,VALID,0,VALID,18.338,VALID,7,VALID,0.802344,
2010-12-25, 01:58:05,VALID,914.854,VALID,0,VALID,94.8887,VALID,0,VALID,18.3185,VALID,7,VALID,0.942578,
2010-12-25, 01:59:05,VALID,914.813,VALID,0,VALID,95.125,VALID,0,VALID,18.299,VALID,7,VALID,1.02891,
2010-12-25, 02:00:05,VALID,914.803,VALID,0,VALID,95.1021,VALID,0,VALID,18.299,VALID,7,VALID,1.11055,
2010-12-25, 02:01:05,VALID,914.821,VALID,0,VALID,95.2317,VALID,0,VALID,18.3185,VALID,7,VALID,1.1875,
2010-12-25, 02:02:05,VALID,914.827,VALID,0,VALID,95.0411,VALID,0.107441,VALID,18.338,VALID,7,VALID,0.941797,
2010-12-25, 02:03:05,VALID,914.806,VALID,0,VALID,94.8429,VALID,0.107441,VALID,18.377,VALID,7,VALID,0.657812,
2010-12-25, 02:04:05,VALID,914.767,VALID,0,VALID,94.6295,VALID,0,VALID,18.3979,VALID,7,VALID,0.554688,
2010-12-25, 02:05:05,VALID,914.754,VALID,0,VALID,94.6523,VALID,0,VALID,18.4564,VALID,7,VALID,0.633984,
2010-12-25, 02:06:05,VALID,914.749,VALID,0,VALID,94.7362,VALID,0,VALID,18.377,VALID,7,VALID,0.296094,
2010-12-25, 02:07:05,VALID,914.702,VALID,0,VALID,94.7133,VALID,0,VALID,18.377,VALID,7,VALID,0.439844,
2010-12-25, 02:08:05,VALID,914.673,VALID,0,VALID,94.7286,VALID,0,VALID,18.4355,VALID,7,VALID,0,
2010-12-25, 02:09:05,VALID,914.687,VALID,0,VALID,94.7819,VALID,0,VALID,18.4369,VALID,7,VALID,0,
2010-12-25, 02:10:05,VALID,914.694,VALID,0,VALID,94.7743,VALID,0,VALID,18.4355,VALID,7,VALID,0,
2010-12-25, 02:11:05,VALID,914.675,VALID,0,VALID,94.7667,VALID,0,VALID,18.455,VALID,7,VALID,0,
2010-12-25, 02:12:05,VALID,914.633,VALID,0,VALID,94.599,VALID,0,VALID,18.4355,VALID,7,VALID,0.167187,
2010-12-25, 02:13:05,VALID,914.637,VALID,0,VALID,94.6218,VALID,0.107441,VALID,18.4954,VALID,7,VALID,0.216016,
2010-12-25, 02:14:05,VALID,914.604,VALID,0,VALID,94.6676,VALID,0,VALID,18.4759,VALID,7,VALID,0.183984,
2010-12-25, 02:15:05,VALID,914.584,VALID,0,VALID,94.5151,VALID,0,VALID,18.5149,VALID,7,VALID,0,
2010-12-25, 02:16:05,VALID,914.546,VALID,0,VALID,94.3169,VALID,0,VALID,18.4731,VALID,7,VALID,0,
2010-12-25, 02:17:05,VALID,914.563,VALID,0,VALID,94.1949,VALID,0,VALID,18.4954,VALID,7,VALID,0,
2010-12-25, 02:18:05,VALID,914.571,VALID,0,VALID,94.1797,VALID,0,VALID,18.5567,VALID,7,VALID,0,
2010-12-25, 02:19:05,VALID,914.561,VALID,0,VALID,94.233,VALID,0,VALID,18.494,VALID,7,VALID,0,
2010-12-25, 02:20:05,VALID,914.589,VALID,0,VALID,94.3245,VALID,0,VALID,18.5163,VALID,7,VALID,0,
2010-12-25, 02:21:05,VALID,914.596,VALID,0,VALID,94.477,VALID,0,VALID,18.4745,VALID,7,VALID,0,
2010-12-25, 02:22:05,VALID,914.598,VALID,0,VALID,94.3931,VALID,0.107441,VALID,18.455,VALID,7,VALID,0,
2010-12-25, 02:23:05,VALID,914.572,VALID,0,VALID,93.951,VALID,0,VALID,18.4174,VALID,7,VALID,0,
2010-12-25, 02:24:05,VALID,914.56,VALID,0,VALID,93.3564,VALID,0,VALID,18.338,VALID,7,VALID,0,
2010-12-25, 02:25:05,VALID,914.549,VALID,0,VALID,93.2572,VALID,0.107441,VALID,18.2796,VALID,7,VALID,0,
2010-12-25, 02:26:05,VALID,914.527,VALID,0,VALID,93.7528,VALID,0,VALID,18.242,VALID,7,VALID,0.514063,
2010-12-25, 02:27:05,VALID,914.494,VALID,0,VALID,94.5532,VALID,0,VALID,18.1417,VALID,7,VALID,0.673828,
2010-12-25, 02:28:05,VALID,914.471,VALID,0,VALID,95.1631,VALID,0,VALID,18.1821,VALID,7,VALID,0.424219,
2010-12-25, 02:29:05,VALID,914.472,VALID,0,VALID,95.4604,VALID,0,VALID,18.2211,VALID,7,VALID,0.339453,
2010-12-25, 02:30:05,VALID,914.448,VALID,0,VALID,95.5519,VALID,0,VALID,18.2392,VALID,7,VALID,0.2875,
2010-12-25, 02:31:05,VALID,914.427,VALID,0,VALID,95.529,VALID,0,VALID,18.2796,VALID,7,VALID,0.46875,
2010-12-25, 02:32:05,VALID,914.418,VALID,0,VALID,95.3842,VALID,0,VALID,18.3199,VALID,7,VALID,0.467578,
2010-12-25, 02:33:05,VALID,914.397,VALID,0,VALID,95.247,VALID,0,VALID,18.2768,VALID,7,VALID,0.252344,
2010-12-25, 02:34:05,VALID,914.364,VALID,0,VALID,95.1097,VALID,0,VALID,18.3589,VALID,7,VALID,0.197656,
2010-12-25, 02:35:05,VALID,914.372,VALID,0,VALID,95.003,VALID,0,VALID,18.2977,VALID,7,VALID,0.0234375,
2010-12-25, 02:36:05,VALID,914.329,VALID,0,VALID,94.9496,VALID,0,VALID,18.299,VALID,7,VALID,0.122656,
2010-12-25, 02:37:05,VALID,914.307,VALID,0,VALID,94.8277,VALID,0,VALID,18.299,VALID,7,VALID,0.369141,
2010-12-25, 02:38:05,VALID,914.322,VALID,0,VALID,94.881,VALID,0,VALID,18.2587,VALID,7,VALID,0.382031,
2010-12-25, 02:39:05,VALID,914.29,VALID,0,VALID,94.881,VALID,0,VALID,18.2809,VALID,7,VALID,0.241797,
2010-12-25, 02:40:05,VALID,914.336,VALID,0,VALID,94.8505,VALID,0,VALID,18.3032,VALID,7,VALID,0,
2010-12-25, 02:41:05,VALID,914.351,VALID,0,VALID,94.7743,VALID,0,VALID,18.2601,VALID,7,VALID,0.221484,
2010-12-25, 02:42:05,VALID,914.349,VALID,0,VALID,94.6981,VALID,0,VALID,18.2183,VALID,7,VALID,0.347266,
2010-12-25, 02:43:05,VALID,914.337,VALID,0,VALID,94.5761,VALID,0,VALID,18.2016,VALID,7,VALID,0.744922,
2010-12-25, 02:44:05,VALID,914.347,VALID,0,VALID,94.5075,VALID,0,VALID,18.1626,VALID,7,VALID,0.774219,
2010-12-25, 02:45:05,VALID,914.323,VALID,0,VALID,94.7286,VALID,0,VALID,18.2044,VALID,7,VALID,0.541016,
2010-12-25, 02:46:05,VALID,914.325,VALID,0,VALID,94.881,VALID,0,VALID,18.1821,VALID,7,VALID,0.725,
2010-12-25, 02:47:05,VALID,914.278,VALID,0,VALID,95.3308,VALID,0,VALID,18.2016,VALID,7,VALID,0.902344,
2010-12-25, 02:48:05,VALID,914.307,VALID,0,VALID,95.4071,VALID,0,VALID,18.1417,VALID,7,VALID,0.484375,
2010-12-25, 02:49:05,VALID,914.25,VALID,0,VALID,95.2851,VALID,0,VALID,18.1236,VALID,7,VALID,0.201172,
2010-12-25, 02:50:05,VALID,914.248,VALID,0,VALID,95.3918,VALID,0,VALID,18.1041,VALID,7,VALID,0.433203,
2010-12-25, 02:51:05,VALID,914.239,VALID,0,VALID,95.7272,VALID,0,VALID,18.1835,VALID,7,VALID,0.539844,
2010-12-25, 02:52:05,VALID,914.208,VALID,0,VALID,95.9712,VALID,0,VALID,18.2615,VALID,7,VALID,0.142578,
2010-12-25, 02:53:05,VALID,914.194,VALID,0,VALID,95.6434,VALID,0,VALID,18.203,VALID,7,VALID,0,
2010-12-25, 02:54:05,VALID,914.183,VALID,0,VALID,94.9801,VALID,0,VALID,18.1904,VALID,7,VALID,0,
2010-12-25, 02:55:05,VALID,914.173,VALID,0,VALID,95.1097,VALID,0,VALID,18.086,VALID,7,VALID,0,
2010-12-25, 02:56:05,VALID,914.185,VALID,0,VALID,95.0945,VALID,0,VALID,18.0262,VALID,7,VALID,0.221484,
2010-12-25, 02:57:05,VALID,914.172,VALID,0,VALID,95.3079,VALID,0,VALID,17.9858,VALID,7,VALID,0,
2010-12-25, 02:58:05,VALID,914.208,VALID,0,VALID,95.468,VALID,0,VALID,17.9858,VALID,7,VALID,0,
2010-12-25, 02:59:05,VALID,914.211,VALID,0,VALID,95.5595,VALID,0,VALID,18.008,VALID,7,VALID,0,
2010-12-25, 03:00:05,VALID,914.219,VALID,0,VALID,95.6662,VALID,0,VALID,18.0262,VALID,7,VALID,0,
2010-12-25, 03:01:05,VALID,914.204,VALID,0,VALID,95.7349,VALID,0,VALID,17.965,VALID,7,VALID,0,
2010-12-25, 03:02:05,VALID,914.185,VALID,0,VALID,95.8492,VALID,0,VALID,18.0624,VALID,7,VALID,0,
2010-12-25, 03:03:05,VALID,914.172,VALID,0,VALID,95.834,VALID,0,VALID,18.1445,VALID,7,VALID,0,
2010-12-25, 03:04:05,VALID,914.149,VALID,0,VALID,95.651,VALID,0,VALID,18.1041,VALID,7,VALID,0.423438,
2010-12-25, 03:05:05,VALID,914.132,VALID,0,VALID,95.712,VALID,0,VALID,18.164,VALID,7,VALID,0.585547,
2010-12-25, 03:06:05,VALID,914.095,VALID,0,VALID,95.5824,VALID,0,VALID,18.2044,VALID,7,VALID,0.63125,
2010-12-25, 03:07:05,VALID,914.094,VALID,0,VALID,95.4223,VALID,0,VALID,18.1055,VALID,7,VALID,0.573047,
2010-12-25, 03:08:05,VALID,914.073,VALID,0,VALID,95.3842,VALID,0,VALID,18.0846,VALID,7,VALID,0.469141,
2010-12-25, 03:09:05,VALID,914.07,VALID,0,VALID,95.4757,VALID,0,VALID,18.0833,VALID,7,VALID,0.402344,
2010-12-25, 03:10:05,VALID,914.08,VALID,0,VALID,95.5214,VALID,0,VALID,18.0234,VALID,7,VALID,0.0113281,
2010-12-25, 03:11:05,VALID,914.077,VALID,0,VALID,95.6967,VALID,0,VALID,18.1236,VALID,7,VALID,0.574219,
2010-12-25, 03:12:05,VALID,914.044,VALID,0,VALID,95.895,VALID,0,VALID,18.1612,VALID,7,VALID,0.476563,
2010-12-25, 03:13:05,VALID,914.029,VALID,0,VALID,95.9788,VALID,0,VALID,18.1612,VALID,7,VALID,0.534766,
2010-12-25, 03:14:05,VALID,913.995,VALID,0,VALID,96.055,VALID,0,VALID,18.2837,VALID,7,VALID,0.293359,
2010-12-25, 03:15:05,VALID,913.986,VALID,0,VALID,95.9254,VALID,0,VALID,18.2433,VALID,7,VALID,0,
2010-12-25, 03:16:05,VALID,913.981,VALID,0,VALID,95.8873,VALID,0,VALID,18.2628,VALID,7,VALID,0,
2010-12-25, 03:17:05,VALID,913.941,VALID,0,VALID,95.773,VALID,0,VALID,18.2837,VALID,7,VALID,0,
2010-12-25, 03:18:05,VALID,913.982,VALID,0,VALID,95.6662,VALID,0,VALID,18.2016,VALID,7,VALID,0.580078,
2010-12-25, 03:19:05,VALID,913.952,VALID,0,VALID,95.7882,VALID,0,VALID,18.2615,VALID,7,VALID,0.766797,
2010-12-25, 03:20:05,VALID,913.945,VALID,0,VALID,95.712,VALID,0,VALID,18.2433,VALID,7,VALID,0.622656,
2010-12-25, 03:21:05,VALID,913.923,VALID,0,VALID,95.773,VALID,0,VALID,18.2211,VALID,7,VALID,0.748047,
2010-12-25, 03:22:05,VALID,913.915,VALID,0,VALID,95.8797,VALID,0,VALID,18.2392,VALID,7,VALID,0.999609,
2010-12-25, 03:23:05,VALID,913.886,VALID,0,VALID,95.8568,VALID,0,VALID,18.2587,VALID,7,VALID,0.701563,
2010-12-25, 03:24:05,VALID,913.872,VALID,0,VALID,95.3689,VALID,0,VALID,18.2016,VALID,7,VALID,0.790234,
2010-12-25, 03:25:05,VALID,913.894,VALID,0,VALID,95.6739,VALID,0,VALID,18.2809,VALID,7,VALID,1.04727,
2010-12-25, 03:26:05,VALID,913.86,VALID,0,VALID,95.4147,VALID,0,VALID,18.2211,VALID,7,VALID,0.846484,
2010-12-25, 03:27:05,VALID,913.847,VALID,0,VALID,94.7362,VALID,0,VALID,18.1264,VALID,7,VALID,0.641016,
2010-12-25, 03:28:05,VALID,913.842,VALID,0,VALID,95.186,VALID,0,VALID,18.1236,VALID,7,VALID,0.965625,
2010-12-25, 03:29:05,VALID,913.815,VALID,0,VALID,95.1021,VALID,0,VALID,18.086,VALID,7,VALID,0.950781,
2010-12-25, 03:30:05,VALID,913.827,VALID,0,VALID,95.7272,VALID,0,VALID,18.1835,VALID,7,VALID,1.05938,
2010-12-25, 03:31:05,VALID,913.81,VALID,0,VALID,95.5824,VALID,0,VALID,18.1236,VALID,7,VALID,0.901172,
2010-12-25, 03:32:05,VALID,913.78,VALID,0,VALID,95.4604,VALID,0,VALID,18.1055,VALID,7,VALID,0.819531,
2010-12-25, 03:33:05,VALID,913.818,VALID,0,VALID,95.6815,VALID,0,VALID,18.0846,VALID,7,VALID,0.775781,
2010-12-25, 03:34:05,VALID,913.869,VALID,0,VALID,95.7806,VALID,0,VALID,18.125,VALID,7,VALID,0.804688,
2010-12-25, 03:35:05,VALID,913.843,VALID,0,VALID,95.4985,VALID,0,VALID,18.0262,VALID,7,VALID,0.703906,
2010-12-25, 03:36:05,VALID,913.868,VALID,0,VALID,95.5671,VALID,0,VALID,18.008,VALID,7,VALID,0.902734,
2010-12-25, 03:37:05,VALID,913.866,VALID,0,VALID,95.5748,VALID,0,VALID,17.9886,VALID,7,VALID,0.823828,
2010-12-25, 03:38:05,VALID,913.856,VALID,0,VALID,95.7654,VALID,0,VALID,18.008,VALID,7,VALID,0.779297,
2010-12-25, 03:39:05,VALID,913.824,VALID,0,VALID,95.7958,VALID,0,VALID,18.0067,VALID,7,VALID,0.706641,
2010-12-25, 03:40:05,VALID,913.838,VALID,0,VALID,95.9254,VALID,0,VALID,18.047,VALID,7,VALID,0.498047,
2010-12-25, 03:41:05,VALID,913.807,VALID,0,VALID,95.8797,VALID,0,VALID,18.0651,VALID,7,VALID,0.421875,
2010-12-25, 03:42:05,VALID,913.808,VALID,0,VALID,95.7806,VALID,0,VALID,18.0457,VALID,7,VALID,0.299219,
2010-12-25, 03:43:05,VALID,913.826,VALID,0,VALID,95.7044,VALID,0,VALID,18.0651,VALID,7,VALID,0.15625,
2010-12-25, 03:44:04,VALID,913.823,VALID,0,VALID,95.6357,VALID,0,VALID,18.086,VALID,7,VALID,0,
2010-12-25, 03:45:04,VALID,913.843,VALID,0,VALID,95.8035,VALID,0,VALID,18.1222,VALID,7,VALID,0.471094,
2010-12-25, 03:46:04,VALID,913.864,VALID,0,VALID,95.8873,VALID,0,VALID,18.1626,VALID,7,VALID,0.136328,
2010-12-25, 03:47:04,VALID,913.854,VALID,0,VALID,95.5824,VALID,0,VALID,18.1236,VALID,7,VALID,0,
2010-12-25, 03:48:04,VALID,913.831,VALID,0,VALID,95.468,VALID,0,VALID,18.1236,VALID,7,VALID,0.474609,
2010-12-25, 03:49:04,VALID,913.831,VALID,0,VALID,95.5367,VALID,0,VALID,18.1445,VALID,7,VALID,0.520312,
2010-12-25, 03:50:04,VALID,913.846,VALID,0,VALID,95.4528,VALID,0,VALID,18.125,VALID,7,VALID,0.398438,
2010-12-25, 03:51:04,VALID,913.844,VALID,0,VALID,95.4223,VALID,0,VALID,18.1055,VALID,7,VALID,0.380859,
2010-12-25, 03:52:04,VALID,913.866,VALID,0,VALID,95.7806,VALID,0,VALID,18.1445,VALID,7,VALID,0.697656,